Time,TemperatureF,DewpointF,PressureIn,WindDirection,WindDirectionDegrees,WindSpeedMPH,WindSpeedGustMPH,Humidity,HourlyPrecipIn,Conditions,Clouds,dailyrainin,SoftwareType,DateUTC
2013-04-01 00:03:00,46.0,-99.9,29.83,North,-999,-999.0,-999.0,-999,-99.99,,,-99.99,,2013-04-01 04:03:00,
2013-04-01 00:14:00,46.0,-99.9,29.83,North,-999,-999.0,-999.0,-999,-99.99,,,-99.99,,2013-04-01 04:14:00,
2013-04-01 00:24:00,46.0,-99.9,29.83,North,-999,-999.0,-999.0,-999,-99.99,,,-99.99,,2013-04-01 04:24:00,
2013-04-01 00:30:00,46.0,-99.9,29.75,North,-999,-999.0,-999.0,-999,-99.99,,,-99.99,,2013-04-01 04:30:00,
2013-04-01 00:53:00,46.0,-99.9,29.75,North,-999,-999.0,-999.0,-999,-99.99,,,-99.99,,2013-04-01 04:53:00,
2013-04-01 01:03:00,46.0,-99.9,29.75,North,-999,-999.0,-999.0,-999,-99.99,,,-99.99,,2013-04-01 05:03:00,
2013-04-01 01:13:00,46.0,-99.9,29.75,North,-999,-999.0,-999.0,-999,-99.99,,,-99.99,,2013-04-01 05:13:00,
2013-04-01 01:23:00,46.0,-99.9,29.75,North,-999,-999.0,-999.0,-999,-99.99,,,-99.99,,2013-04-01 05:23:00,
2013-04-01 01:30:00,45.0,-99.9,29.68,North,-999,-999.0,-999.0,-999,-99.99,,,-99.99,,2013-04-01 05:30:00,
2013-04-01 01:53:00,45.0,-99.9,29.68,North,-999,-999.0,-999.0,-999,-99.99,,,-99.99,,2013-04-01 05:53:00,
2013-04-01 02:02:00,45.0,-99.9,29.68,North,-999,-999.0,-999.0,-999,-99.99,,,-99.99,,2013-04-01 06:02:00,
2013-04-01 02:13:00,45.0,-99.9,29.68,North,-999,-999.0,-999.0,-999,-99.99,,,-99.99,,2013-04-01 06:13:00,
2013-04-01 02:23:00,45.0,-99.9,29.68,North,-999,-999.0,-999.0,-999,-99.99,,,-99.99,,2013-04-01 06:23:00,
2013-04-01 02:30:00,47.0,-99.9,29.63,North,-999,-999.0,-999.0,-999,-99.99,,,-99.99,,2013-04-01 06:30:00,
2013-04-01 02:53:00,47.0,-99.9,29.63,North,-999,-999.0,-999.0,-999,-99.99,,,-99.99,,2013-04-01 06:53:00,
2013-04-01 03:03:00,47.0,-99.9,29.63,North,-999,-999.0,-999.0,-999,-99.99,,,-99.99,,2013-04-01 07:03:00,
2013-04-01 03:13:00,47.0,-99.9,29.63,North,-999,-999.0,-999.0,-999,-99.99,,,-99.99,,2013-04-01 07:13:00,
2013-04-01 03:22:00,47.0,-99.9,29.63,North,-999,-999.0,-999.0,-999,-99.99,,,-99.99,,2013-04-01 07:22:00,
2013-04-01 03:30:00,48.0,-99.9,29.60,North,-999,-999.0,-999.0,-999,-99.99,,,-99.99,,2013-04-01 07:30:00,
2013-04-01 03:53:00,48.0,-99.9,29.60,North,-999,-999.0,-999.0,-999,-99.99,,,-99.99,,2013-04-01 07:53:00,
2013-04-01 04:03:00,48.0,-99.9,29.60,North,-999,-999.0,-999.0,-999,-99.99,,,-99.99,,2013-04-01 08:03:00,
2013-04-01 04:13:00,48.0,-99.9,29.60,North,-999,-999.0,-999.0,-999,-99.99,,,-99.99,,2013-04-01 08:13:00,
2013-04-01 04:22:00,48.0,-99.9,29.60,North,-999,-999.0,-999.0,-999,-99.99,,,-99.99,,2013-04-01 08:22:00,
2013-04-01 04:30:00,45.0,-99.9,29.59,North,-999,-999.0,-999.0,-999,-99.99,,,-99.99,,2013-04-01 08:30:00,
2013-04-01 04:53:00,45.0,-99.9,29.59,North,-999,-999.0,-999.0,-999,-99.99,,,-99.99,,2013-04-01 08:53:00,
2013-04-01 05:03:00,45.0,-99.9,29.59,North,-999,-999.0,-999.0,-999,-99.99,,,-99.99,,2013-04-01 09:03:00,
2013-04-01 05:12:00,45.0,-99.9,29.59,North,-999,-999.0,-999.0,-999,-99.99,,,-99.99,,2013-04-01 09:12:00,
2013-04-01 05:23:00,45.0,-99.9,29.59,North,-999,-999.0,-999.0,-999,-99.99,,,-99.99,,2013-04-01 09:23:00,
2013-04-01 05:30:00,45.0,-99.9,29.62,North,-999,-999.0,-999.0,-999,-99.99,,,-99.99,,2013-04-01 09:30:00,
2013-04-01 05:54:00,45.0,-99.9,29.62,North,-999,-999.0,-999.0,-999,-99.99,,,-99.99,,2013-04-01 09:54:00,
2013-04-01 06:03:00,45.0,-99.9,29.62,North,-999,-999.0,-999.0,-999,-99.99,,,-99.99,,2013-04-01 10:03:00,
2013-04-01 06:13:00,45.0,-99.9,29.62,North,-999,-999.0,-999.0,-999,-99.99,,,-99.99,,2013-04-01 10:13:00,
2013-04-01 06:24:00,45.0,-99.9,29.62,North,-999,-999.0,-999.0,-999,-99.99,,,-99.99,,2013-04-01 10:24:00,
2013-04-01 06:30:00,47.0,-99.9,29.62,North,-999,-999.0,-999.0,-999,-99.99,,,-99.99,,2013-04-01 10:30:00,
2013-04-01 06:54:00,47.0,-99.9,29.62,North,-999,-999.0,-999.0,-999,-99.99,,,-99.99,,2013-04-01 10:54:00,
2013-04-01 07:03:00,47.0,-99.9,29.62,North,-999,-999.0,-999.0,-999,-99.99,,,-99.99,,2013-04-01 11:03:00,
2013-04-01 07:13:00,47.0,-99.9,29.62,North,-999,-999.0,-999.0,-999,-99.99,,,-99.99,,2013-04-01 11:13:00,
2013-04-01 07:23:00,47.0,-99.9,29.62,North,-999,-999.0,-999.0,-999,-99.99,,,-99.99,,2013-04-01 11:23:00,
2013-04-01 07:30:00,48.0,-99.9,29.65,North,-999,-999.0,-999.0,-999,-99.99,,,-99.99,,2013-04-01 11:30:00,
2013-04-01 07:53:00,48.0,-99.9,29.65,North,-999,-999.0,-999.0,-999,-99.99,,,-99.99,,2013-04-01 11:53:00,
2013-04-01 08:03:00,48.0,-99.9,29.65,North,-999,-999.0,-999.0,-999,-99.99,,,-99.99,,2013-04-01 12:03:00,
2013-04-01 08:12:00,48.0,-99.9,29.65,North,-999,-999.0,-999.0,-999,-99.99,,,-99.99,,2013-04-01 12:12:00,
2013-04-01 08:23:00,48.0,-99.9,29.65,North,-999,-999.0,-999.0,-999,-99.99,,,-99.99,,2013-04-01 12:23:00,
2013-04-01 08:30:00,47.0,-99.9,29.69,North,-999,-999.0,-999.0,-999,-99.99,,,-99.99,,2013-04-01 12:30:00,
2013-04-01 08:53:00,47.0,-99.9,29.69,North,-999,-999.0,-999.0,-999,-99.99,,,-99.99,,2013-04-01 12:53:00,
2013-04-01 09:03:00,47.0,-99.9,29.69,North,-999,-999.0,-999.0,-999,-99.99,,,-99.99,,2013-04-01 13:03:00,
2013-04-01 09:13:00,47.0,-99.9,29.69,North,-999,-999.0,-999.0,-999,-99.99,,,-99.99,,2013-04-01 13:13:00,
2013-04-01 09:23:00,47.0,-99.9,29.69,North,-999,-999.0,-999.0,-999,-99.99,,,-99.99,,2013-04-01 13:23:00,
2013-04-01 09:30:00,50.0,-99.9,29.68,North,-999,-999.0,-999.0,-999,-99.99,,,-99.99,,2013-04-01 13:30:00,
2013-04-01 09:53:00,50.0,-99.9,29.68,North,-999,-999.0,-999.0,-999,-99.99,,,-99.99,,2013-04-01 13:53:00,
2013-04-01 10:04:00,50.0,-99.9,29.68,North,-999,-999.0,-999.0,-999,-99.99,,,-99.99,,2013-04-01 14:04:00,
2013-04-01 10:13:00,50.0,-99.9,29.68,North,-999,-999.0,-999.0,-999,-99.99,,,-99.99,,2013-04-01 14:13:00,
2013-04-01 10:23:00,50.0,-99.9,29.68,North,-999,-999.0,-999.0,-999,-99.99,,,-99.99,,2013-04-01 14:23:00,
2013-04-01 10:30:00,53.0,-99.9,29.68,North,-999,-999.0,-999.0,-999,-99.99,,,-99.99,,2013-04-01 14:30:00,
2013-04-01 10:53:00,53.0,-99.9,29.68,North,-999,-999.0,-999.0,-999,-99.99,,,-99.99,,2013-04-01 14:53:00,
2013-04-01 11:03:00,53.0,-99.9,29.68,North,-999,-999.0,-999.0,-999,-99.99,,,-99.99,,2013-04-01 15:03:00,
2013-04-01 11:13:00,53.0,-99.9,29.68,North,-999,-999.0,-999.0,-999,-99.99,,,-99.99,,2013-04-01 15:13:00,
2013-04-01 11:23:00,53.0,-99.9,29.68,North,-999,-999.0,-999.0,-999,-99.99,,,-99.99,,2013-04-01 15:23:00,
2013-04-01 11:30:00,54.0,-99.9,29.69,North,-999,-999.0,-999.0,-999,-99.99,,,-99.99,,2013-04-01 15:30:00,
2013-04-01 11:54:00,54.0,-99.9,29.69,North,-999,-999.0,-999.0,-999,-99.99,,,-99.99,,2013-04-01 15:54:00,
2013-04-01 12:03:00,54.0,-99.9,29.69,North,-999,-999.0,-999.0,-999,-99.99,,,-99.99,,2013-04-01 16:03:00,
2013-04-01 12:13:00,54.0,-99.9,29.69,North,-999,-999.0,-999.0,-999,-99.99,,,-99.99,,2013-04-01 16:13:00,
2013-04-01 12:23:00,54.0,-99.9,29.69,North,-999,-999.0,-999.0,-999,-99.99,,,-99.99,,2013-04-01 16:23:00,
2013-04-01 12:53:00,53.0,-99.9,29.69,North,-999,-999.0,-999.0,-999,-99.99,,,-99.99,,2013-04-01 16:53:00,
2013-04-01 13:03:00,53.0,-99.9,29.69,North,-999,-999.0,-999.0,-999,-99.99,,,-99.99,,2013-04-01 17:03:00,
2013-04-01 13:13:00,53.0,-99.9,29.69,North,-999,-999.0,-999.0,-999,-99.99,,,-99.99,,2013-04-01 17:13:00,
2013-04-01 13:23:00,53.0,-99.9,29.69,North,-999,-999.0,-999.0,-999,-99.99,,,-99.99,,2013-04-01 17:23:00,
2013-04-01 13:30:00,53.0,-99.9,29.67,North,-999,-999.0,-999.0,-999,-99.99,,,-99.99,,2013-04-01 17:30:00,
2013-04-01 13:32:00,54.0,-99.9,29.68,North,-999,-999.0,-999.0,-999,-99.99,,,-99.99,,2013-04-01 17:32:00,
2013-04-01 13:42:00,54.0,-99.9,29.68,North,-999,-999.0,-999.0,-999,-99.99,,,-99.99,,2013-04-01 17:42:00,
2013-04-01 13:54:00,53.0,-99.9,29.67,North,-999,-999.0,-999.0,-999,-99.99,,,-99.99,,2013-04-01 17:54:00,
2013-04-01 14:03:00,53.0,-99.9,29.67,North,-999,-999.0,-999.0,-999,-99.99,,,-99.99,,2013-04-01 18:03:00,
2013-04-01 14:13:00,53.0,-99.9,29.67,North,-999,-999.0,-999.0,-999,-99.99,,,-99.99,,2013-04-01 18:13:00,
2013-04-01 14:22:00,53.0,-99.9,29.67,North,-999,-999.0,-999.0,-999,-99.99,,,-99.99,,2013-04-01 18:22:00,
2013-04-01 14:30:00,55.0,-99.9,29.63,North,-999,-999.0,-999.0,-999,-99.99,,,-99.99,,2013-04-01 18:30:00,
2013-04-01 14:54:00,55.0,-99.9,29.63,North,-999,-999.0,-999.0,-999,-99.99,,,-99.99,,2013-04-01 18:54:00,
2013-04-01 15:04:00,55.0,-99.9,29.63,North,-999,-999.0,-999.0,-999,-99.99,,,-99.99,,2013-04-01 19:04:00,
2013-04-01 15:13:00,55.0,-99.9,29.63,North,-999,-999.0,-999.0,-999,-99.99,,,-99.99,,2013-04-01 19:13:00,
2013-04-01 15:23:00,55.0,-99.9,29.63,North,-999,-999.0,-999.0,-999,-99.99,,,-99.99,,2013-04-01 19:23:00,
2013-04-01 15:30:00,54.0,-99.9,29.63,North,-999,-999.0,-999.0,-999,-99.99,,,-99.99,,2013-04-01 19:30:00,
2013-04-01 15:53:00,54.0,-99.9,29.63,North,-999,-999.0,-999.0,-999,-99.99,,,-99.99,,2013-04-01 19:53:00,
2013-04-01 16:03:00,54.0,-99.9,29.63,North,-999,-999.0,-999.0,-999,-99.99,,,-99.99,,2013-04-01 20:03:00,
2013-04-01 16:13:00,54.0,-99.9,29.63,North,-999,-999.0,-999.0,-999,-99.99,,,-99.99,,2013-04-01 20:13:00,
2013-04-01 16:23:00,54.0,-99.9,29.63,North,-999,-999.0,-999.0,-999,-99.99,,,-99.99,,2013-04-01 20:23:00,
2013-04-01 16:30:00,53.0,-99.9,29.62,North,-999,-999.0,-999.0,-999,-99.99,,,-99.99,,2013-04-01 20:30:00,
2013-04-01 16:52:00,53.0,-99.9,29.62,North,-999,-999.0,-999.0,-999,-99.99,,,-99.99,,2013-04-01 20:52:00,
2013-04-01 17:03:00,53.0,-99.9,29.62,North,-999,-999.0,-999.0,-999,-99.99,,,-99.99,,2013-04-01 21:03:00,
2013-04-01 17:12:00,53.0,-99.9,29.62,North,-999,-999.0,-999.0,-999,-99.99,,,-99.99,,2013-04-01 21:12:00,
2013-04-01 17:23:00,53.0,-99.9,29.62,North,-999,-999.0,-999.0,-999,-99.99,,,-99.99,,2013-04-01 21:23:00,
2013-04-01 17:30:00,49.0,-99.9,29.63,North,-999,-999.0,-999.0,-999,-99.99,,,-99.99,,2013-04-01 21:30:00,
2013-04-01 17:53:00,49.0,-99.9,29.63,North,-999,-999.0,-999.0,-999,-99.99,,,-99.99,,2013-04-01 21:53:00,
2013-04-01 18:03:00,49.0,-99.9,29.63,North,-999,-999.0,-999.0,-999,-99.99,,,-99.99,,2013-04-01 22:03:00,
2013-04-01 18:13:00,49.0,-99.9,29.63,North,-999,-999.0,-999.0,-999,-99.99,,,-99.99,,2013-04-01 22:13:00,
2013-04-01 18:23:00,49.0,-99.9,29.63,North,-999,-999.0,-999.0,-999,-99.99,,,-99.99,,2013-04-01 22:23:00,
2013-04-01 18:52:00,49.0,-99.9,29.67,North,-999,-999.0,-999.0,-999,-99.99,,,-99.99,,2013-04-01 22:52:00,
2013-04-01 19:02:00,49.0,-99.9,29.67,North,-999,-999.0,-999.0,-999,-99.99,,,-99.99,,2013-04-01 23:02:00,
2013-04-01 19:12:00,49.0,-99.9,29.67,North,-999,-999.0,-999.0,-999,-99.99,,,-99.99,,2013-04-01 23:12:00,
2013-04-01 19:23:00,49.0,-99.9,29.67,North,-999,-999.0,-999.0,-999,-99.99,,,-99.99,,2013-04-01 23:23:00,
2013-04-01 19:30:00,45.0,-99.9,29.70,North,-999,-999.0,-999.0,-999,-99.99,,,-99.99,,2013-04-01 23:30:00,
2013-04-01 19:32:00,47.0,-99.9,29.68,North,-999,-999.0,-999.0,-999,-99.99,,,-99.99,,2013-04-01 23:32:00,
2013-04-01 19:43:00,47.0,-99.9,29.68,North,-999,-999.0,-999.0,-999,-99.99,,,-99.99,,2013-04-01 23:43:00,
2013-04-01 19:53:00,45.0,-99.9,29.70,North,-999,-999.0,-999.0,-999,-99.99,,,-99.99,,2013-04-01 23:53:00,
2013-04-01 20:03:00,45.0,-99.9,29.70,North,-999,-999.0,-999.0,-999,-99.99,,,-99.99,,2013-04-02 00:03:00,
2013-04-01 20:12:00,45.0,-99.9,29.70,North,-999,-999.0,-999.0,-999,-99.99,,,-99.99,,2013-04-02 00:12:00,
2013-04-01 20:23:00,45.0,-99.9,29.70,North,-999,-999.0,-999.0,-999,-99.99,,,-99.99,,2013-04-02 00:23:00,
2013-04-01 20:30:00,41.0,-99.9,29.74,North,-999,-999.0,-999.0,-999,-99.99,,,-99.99,,2013-04-02 00:30:00,
2013-04-01 20:53:00,41.0,-99.9,29.74,North,-999,-999.0,-999.0,-999,-99.99,,,-99.99,,2013-04-02 00:53:00,
2013-04-01 21:03:00,41.0,-99.9,29.74,North,-999,-999.0,-999.0,-999,-99.99,,,-99.99,,2013-04-02 01:03:00,
2013-04-01 21:12:00,41.0,-99.9,29.74,North,-999,-999.0,-999.0,-999,-99.99,,,-99.99,,2013-04-02 01:12:00,
2013-04-01 21:22:00,41.0,-99.9,29.74,North,-999,-999.0,-999.0,-999,-99.99,,,-99.99,,2013-04-02 01:22:00,
2013-04-01 21:30:00,42.0,-99.9,29.77,North,-999,-999.0,-999.0,-999,-99.99,,,-99.99,,2013-04-02 01:30:00,
2013-04-01 21:53:00,42.0,-99.9,29.77,North,-999,-999.0,-999.0,-999,-99.99,,,-99.99,,2013-04-02 01:53:00,
2013-04-01 22:13:00,42.0,-99.9,29.77,North,-999,-999.0,-999.0,-999,-99.99,,,-99.99,,2013-04-02 02:13:00,
2013-04-01 22:23:00,42.0,-99.9,29.77,North,-999,-999.0,-999.0,-999,-99.99,,,-99.99,,2013-04-02 02:23:00,
2013-04-01 22:30:00,41.0,-99.9,29.81,North,-999,-999.0,-999.0,-999,-99.99,,,-99.99,,2013-04-02 02:30:00,
2013-04-01 22:53:00,41.0,-99.9,29.81,North,-999,-999.0,-999.0,-999,-99.99,,,-99.99,,2013-04-02 02:53:00,
2013-04-01 23:02:00,41.0,-99.9,29.81,North,-999,-999.0,-999.0,-999,-99.99,,,-99.99,,2013-04-02 03:02:00,
2013-04-01 23:13:00,41.0,-99.9,29.81,North,-999,-999.0,-999.0,-999,-99.99,,,-99.99,,2013-04-02 03:13:00,
2013-04-01 23:22:00,41.0,-99.9,29.81,North,-999,-999.0,-999.0,-999,-99.99,,,-99.99,,2013-04-02 03:22:00,
2013-04-01 23:30:00,38.0,-99.9,29.82,North,-999,-999.0,-999.0,-999,-99.99,,,-99.99,,2013-04-02 03:30:00,
2013-04-01 23:53:00,38.0,-99.9,29.82,North,-999,-999.0,-999.0,-999,-99.99,,,-99.99,,2013-04-02 03:53:00,